Commit Graph

  • 3f4bc9dd98 Add the ability to specify a version from repo bryan 2020-04-30 12:15:09 -04:00
  • c9a9d82d3a Rename install-rpmbuild argument to install-rpm bryan 2020-04-30 10:20:02 -04:00
  • 988222540a Fix firewall-cmd derp on fedora/centos bryan 2020-04-30 10:17:01 -04:00
  • a4d82c621f Break out standalone x11vnc service bryan 2020-04-29 23:31:51 -04:00
  • baa1975e47 Fix ufw firewall service name bryan 2020-04-29 18:07:52 -04:00
  • 17b2b62f95 Update README bryan 2020-04-29 14:30:32 -04:00
  • eb7977318d v0.5 release bryan 2020-04-29 13:59:00 -04:00
  • 1b48fee531 Make package update less noisy bryan 2020-04-29 13:58:15 -04:00
  • 0a3a70386a Query ufw package to speed up firewall rule creation bryan 2020-04-29 13:53:06 -04:00
  • d3ef805699 Cleanup service names and remove explicit jriver-mediaserver block bryan 2020-04-29 13:34:27 -04:00
  • 4da5eef350 Simplify _setDisplayAndPort() bryan 2020-04-27 01:22:31 -04:00
  • 6eb20a33ff Merge branch 'master' into dev bryan 2020-04-26 23:48:41 -04:00
  • 95f64e5170 Fix xorg-utils dependency on ubuntu/debian bryan 2020-04-26 23:38:58 -04:00
  • 49bc9ea337 Fix xorg-utils dependency on ubuntu/debian bryan 2020-04-26 23:33:40 -04:00
  • f605983129 Fix derp and make apt-get noisier bryan 2020-04-26 23:20:47 -04:00
  • 45f61ac3a0 Update README bryan 2020-04-26 22:47:36 -04:00
  • abd0f43ad1 Refactor bryan 2020-04-26 22:38:57 -04:00
  • 18adf518f2 Update README bryan 2020-04-26 16:20:28 -04:00
  • 7024e31287 v0.3 release bryan 2020-04-25 13:05:15 -04:00
  • b0c050ef13 Refactor openFirewall() and add support for x11vnc/vncserver bryan 2020-04-25 12:50:16 -04:00
  • dfcbfce66e Enable firewall rules by default bryan 2020-04-25 12:00:16 -04:00
  • fbc6c55ced Fix vncserver service logic bryan 2020-04-25 11:36:53 -04:00
  • 96404c8f63 Fix service name bryan 2020-04-25 11:30:28 -04:00
  • 8de870b18a Cleanup bryan 2020-04-25 11:27:33 -04:00
  • 2fae2d0ae8 Separate systemcl start and enable to provide better output bryan 2020-04-25 11:06:51 -04:00
  • 5871925c4c Be less dramatic bryan 2020-04-25 10:54:53 -04:00
  • d45d35d815 Set default behavior bryan 2020-04-25 10:54:36 -04:00
  • 6044b3dacf Fix $_display in x11vnc service bryan 2020-04-25 10:21:26 -04:00
  • 295aa4dcbe Identify current desktop resolution for x11vnc service bryan 2020-04-25 09:37:13 -04:00
  • 4a797d68d5 Update README bryan 2020-04-25 09:27:31 -04:00
  • 26c6054b3a Complete vncserver service bryan 2020-04-25 09:27:23 -04:00
  • eaf17abb65 Major refactor, bump version to 0.2 bryan 2020-04-24 15:19:03 -04:00
  • f316293deb Remove rpmfusion from Fedora bryan 2020-04-16 15:29:00 -04:00
  • 94165f15d3 Send package manager output to debug bryan 2020-04-16 12:52:13 -04:00
  • 1573b45dd5 Add XAUTHORITY env var to mediaserver service bryan 2020-04-16 12:26:07 -04:00
  • ff8d7e332b Add helpful messages to uninstaller bryan 2020-04-16 11:29:49 -04:00
  • a5732319da Add libXScrnSaver dependency to CentOS bryan 2020-04-16 11:26:33 -04:00
  • 3e22a842d3 Make less noisy bryan 2020-04-15 18:55:26 -04:00
  • a4d291bf58 Fix derp bryan 2020-04-15 18:55:12 -04:00
  • c0df8d792b Fix _bash_cmd bryan 2020-04-15 18:45:41 -04:00
  • 20177ec52c Add a ton of debugging bryan 2020-04-15 18:42:51 -04:00
  • 14f815632c Remove pangox dependency from centos since it's not in the epel yet bryan 2020-04-15 16:51:20 -04:00
  • d361cf8757 Fix installPackage function bryan 2020-04-15 11:49:51 -04:00
  • 9cd7be25cd Update README.md bryan 2020-04-15 11:12:12 -04:00
  • e722473e99 Simplify vncpass and make systemd output less noisy bryan 2020-04-15 11:02:27 -04:00
  • c583a474ef Clean up OS commands bryan 2020-04-13 14:02:58 -04:00
  • c6b36b06b2 Remove deburl and boardurl options to simplify usage and documentations bryan 2020-04-13 10:08:55 -04:00
  • 0114e6af2c Simplify external repo installation bryan 2020-04-13 10:04:32 -04:00
  • c541190d83 Make less noisy bryan 2020-04-11 10:28:37 -04:00
  • f5c49c69d2 Fix ufw port specifier bryan 2020-04-11 10:08:09 -04:00
  • 4f89a50202 Update python requires to explicit python3 bryan 2020-04-11 09:54:06 -04:00
  • eb6f88caa4 Make current user the default createrepo-user bryan 2020-04-10 17:32:12 -04:00
  • c16e6a0ec0 Make dependency installation less noisy bryan 2020-04-10 16:20:32 -04:00
  • fc6a80daef Fix outputdir bryan 2020-04-10 10:12:01 -04:00
  • aa7fd7b24c Make firewall-cmd output less noisy bryan 2020-04-08 15:58:48 -04:00
  • 460658f29f Refactor bryan 2020-04-08 15:53:04 -04:00
  • af06ca0d34 Update .gitignore bryan 2020-04-03 12:08:12 -04:00
  • 4ac27676a6 RHEL-approved naming bryan 2020-04-03 12:08:02 -04:00
  • cbfb0ffd0c Use default firewalld zone bryan 2020-04-03 12:07:32 -04:00
  • 950369e683 Create user systemd service dir if it does not exist bryan 2020-04-03 11:17:35 -04:00
  • 146d10c58a installJRMC v0.1 bryan 2020-04-01 18:14:19 -04:00
  • 36f326e581 Attempt to install dependencies in build mode bryan 2020-01-16 18:43:34 -05:00
  • 5e5d047f2a Switch from wget to curl to shrink container bryan 2020-01-16 18:06:14 -05:00
  • fe56d180d2 Update ssl cert symlinks and update for MC26 bryan 2020-01-16 16:29:01 -05:00
  • 81787c6a3b Get sources from https and fix SOURCES dir creation bryan 2019-06-18 16:21:21 -04:00
  • 4d7cf29144 Check for RPMFusion in --install-repo mode bryan 2019-06-16 11:10:02 -04:00
  • 7ed678bf8b Remove SID bryan 2019-06-04 19:22:18 -04:00
  • 05a2d8eaea Remove automode and a small refactor bryan 2019-06-04 16:37:13 -04:00
  • 0e8fa43284 Add install mode bryan 2019-06-01 18:28:39 -04:00
  • bcc8d4ad10 Refactor for new build only mode bryan 2019-05-26 11:26:41 -04:00
  • 7a58476aeb Update README and add .gitignore bryan 2019-05-25 17:17:31 -04:00
  • d3a9bff93a Add autoupdate/standalone mode bryan 2019-05-25 16:51:00 -04:00
  • 1a5f30f43f Update README bryan 2019-03-30 17:02:38 -04:00
  • d70cb4397f Add test repo check bryan 2019-03-27 10:25:36 -04:00
  • c2f7944439 Add backwards security limits file compatibility bryan 2019-03-20 12:08:37 -04:00
  • 0119faa12d Add beta version support, show rpmbuild errors, fix security limits configuration naming bryan 2019-03-20 11:36:58 -04:00
  • 6f8f125a19 Add security limits file bryan 2019-01-05 11:38:15 -05:00
  • a515db0f21 Remove nonfree repo dependencies bryan 2018-07-31 19:38:09 -04:00
  • b77e6834fc Complete CentOS logic, and use default .desktop file cryobry 2018-05-30 16:48:02 -04:00
  • 75e9bdd6cb Add web browser dependencies cryobry 2018-05-29 22:37:45 -04:00
  • cfa3902c1c Add initial centos checks cryobry 2018-05-29 17:20:57 -04:00
  • 94005b1796 Code cleanup cryobry 2018-05-25 17:20:03 -04:00
  • b014b0b340 Add ca-certifacte handling cryobry 2018-05-25 11:24:54 -04:00
  • bc8cf45569 Initial develop branch, update dependencies cryobry 2018-05-19 12:12:01 -04:00
  • 8c440e5501 Add libgomp dependency cryobry 2018-05-13 14:54:54 -07:00
  • c6faf88dd9 Update README cryobry 2018-04-10 23:15:07 -07:00
  • 7a5c478c2c Initial commit cryobry 2018-04-10 22:50:20 -07:00